Rock Hill, SC

1:01 AM EDT on September 30, 2016 (GMT -0400)
Rock Hill-York County-Bryant

Weather History for KUZA - April, 2014

Change the Weather History Date:

Tuesday, April 22, 2014

  Actual Average Record
Temperature  
Mean Temperature 63 °F -  
Max Temperature 80 °F 74 °F 89 °F (1957)
Min Temperature 48 °F 51 °F 32 °F (1978)
Degree Days  
Heating Degree Days 2    
Growing Degree Days 13 (Base 50)    
Moisture  
Dew Point 52 °F    
Average Humidity 73    
Maximum Humidity 97    
Minimum Humidity 35    
Precipitation  
Precipitation 0.04 in - - ()
Sea Level Pressure  
Sea Level Pressure 29.80 in    
Wind  
Wind Speed 5 mph (WSW)    
Max Wind Speed 10 mph    
Max Gust Speed 20 mph    
Visibility 9 miles    
Events Rain    
Averages and records for this station are not official NWS values.
T = Trace of Precipitation, MM = Missing Value Source: NWS Daily Summary

Daily Weather History Graph

Daily Weather History Graph

Search for Another Location

Airport or City:

Trip Planner

Search our weather history database for the weather conditions in past years. The results will help you decide how hot, cold, wet, or windy it might be!

Date:

Astronomy

Apr. 22, 2014 Rise Set
Actual Time 6:43 AM EDT 8:02 PM EDT
Civil Twilight 6:17 AM EDT 8:28 PM EDT
Nautical Twilight 5:45 AM EDT 9:00 PM EDT
Astronomical Twilight 5:12 AM EDT 9:33 PM EDT
Moon 2:15 AM EDT (4/22) 1:17 PM EDT (4/22)
Length of Visible Light 14h 11m
Length of Day
13h 18m
Last Quarter, 46% of the Moon is Illuminated
Apr 22
Last Quarter
Apr 29
New
May 6
First Quarter
May 14
Full
May 21
Last Quarter

Hourly Weather History & Observations

Time (EDT) Temp. Dew Point Humidity Pressure Visibility Wind Dir Wind Speed Gust Speed Precip Events Conditions
12:54 AM 50.0 °F 46.0 °F 86% 29.92 in 10.0 mi SSW 4.6 mph - N/A   Clear
1:54 AM 50.0 °F 46.0 °F 86% 29.91 in 10.0 mi SW 5.8 mph - N/A   Clear
2:54 AM 50.0 °F 46.9 °F 89% 29.87 in 10.0 mi SSW 8.1 mph - N/A   Clear
3:54 AM 51.1 °F 48.0 °F 89% 29.86 in 10.0 mi WSW 6.9 mph - N/A   Clear
4:54 AM 51.1 °F 45.0 °F 80% 29.84 in 10.0 mi WSW 6.9 mph - N/A   Clear
6:54 AM 48.9 °F 45.0 °F 86% 29.84 in 9.0 mi Calm Calm - N/A   Clear
7:54 AM 54.0 °F 48.9 °F 83% 29.84 in 9.0 mi SW 3.5 mph - N/A   Clear
8:54 AM 61.0 °F 48.9 °F 64% 29.83 in 10.0 mi SW 4.6 mph - N/A   Clear
9:54 AM 66.9 °F 50.0 °F 54% 29.83 in 10.0 mi West 4.6 mph - N/A   Clear
10:54 AM 73.0 °F 51.1 °F 46% 29.81 in 10.0 mi Variable 3.5 mph - N/A   Clear
11:54 AM 75.9 °F 51.1 °F 42% 29.80 in 10.0 mi Variable 6.9 mph - N/A   Scattered Clouds
12:54 PM 78.1 °F 51.1 °F 39% 29.78 in 10.0 mi NW 8.1 mph - N/A   Clear
1:54 PM 78.1 °F 48.0 °F 35% 29.76 in 10.0 mi Variable 6.9 mph 16.1 mph N/A   Partly Cloudy
2:54 PM 77.0 °F 51.1 °F 40% 29.75 in 10.0 mi WNW 6.9 mph - N/A   Overcast
3:54 PM 72.0 °F 53.1 °F 51% 29.76 in 9.0 mi NW 10.4 mph 19.6 mph 0.00 in Rain Light Rain
4:54 PM 64.9 °F 60.1 °F 84% 29.77 in 9.0 mi WNW 4.6 mph - 0.04 in Rain Light Rain
5:54 PM 66.0 °F 59.0 °F 78% 29.75 in 10.0 mi West 4.6 mph - 0.00 in   Partly Cloudy
6:54 PM 66.9 °F 59.0 °F 76% 29.74 in 10.0 mi WSW 4.6 mph - N/A   Clear
7:54 PM 63.0 °F 59.0 °F 87% 29.74 in 9.0 mi Calm Calm - N/A   Clear
8:54 PM 61.0 °F 57.9 °F 90% 29.75 in 8.0 mi SW 4.6 mph - N/A   Clear
9:54 PM 61.0 °F 59.0 °F 93% 29.77 in 7.0 mi SW 6.9 mph - N/A   Clear
10:54 PM 61.0 °F 59.0 °F 93% 29.77 in 7.0 mi West 5.8 mph - N/A   Clear
11:54 PM 57.9 °F 57.0 °F 97% 29.76 in 3.0 mi SW 5.8 mph - N/A   Clear